SCP
0 0 0 0 0 0 0 0 0 0 0 0 0 0 0 0 0 0 0 0 0 0 0 0 0 0 0 0 0 0 0 0 0 0 0 0 0 0 0 0 0 0 0 0
0 0 0 0 0 0 0 0 0 0 0 0 0 0 0 0 0 0 0 0 0 0 0 0 0 0 0 0 0 0 0 0 0 0 0 0 0 0 0 0 0 0 0 0
0 0 0 0 0 0 0 0 0 0 0 0 0 0 0 0 0 0 0 0 0 0 0 0 0 0 0 0 0 0 0 0 0 0 0 0 0 0 0 0 0 0 0 0
0 0 0 0 0 0 0 0 0 0 0 0 0 0 0 0 0 0 0 0 0 0 0 0 0 0 0 0 0 0 0 0 0 0 0 0 0 0 0 0 0 0 0 0
0 0 0 0 0 0 0 0 0 0 0 0 0 0 0 0 0 0 0 0 0 0 0 0 0 0 0 0 0 0 0 0 0 0 0 0 0 0 0 0 0 0 0 0
0 0 0 0 0 0 0 0 0 0 0 0 0 0 0 0 0 0 0 0 0 0 0 0 0 0 0 0 0 0 0 0 0 0 0 0 0 0 0 0 0 0 0 0
0 0 0 0 0 0 0 0 0 0 0 0 0 0 0 0 0 0 0 0 0 0 0 0 0 0 0 0 0 0 0 0 0 0 0 0 0 0 0 0 0 0 0 0
0 0 0 0 0 0 0 0 0 0 0 0 0 0 0 0 0 0 0 0 0 0 0 0 0 0 0 0 0 0 0 0 0 0 0 0 0 0 0 0 0 0 0 0
0 0 0 0 0 0 0 0 0 0 0 0 0 0 0 0 0 0 0 0 0 0 0 0 0 0 0 0 0 0 0 0 0 0 0 0 0 0 0 0 0 0 0 0
0 0 0 0 0 0 0 0 0 0 0 0 0 0 0 0 0 0 0 0 0 0 0 0 0 0 0 0 0 0 0 0 0 0 0 0 0 0 0 0 0 0 0 0
0 0 0 0 0 0 0 0 0 0 0 0 0 0 0 0 0 0 0 0 0 0 0 0 0 0 0 0 0 0 0 0 0 0 0 0 0 0 0 0 0 0 0 0
0 0 0 0 0 0 0 0 0 0 0 0 0 0 0 0 0 0 0 0 0 0 0 0 0 0 0 0 0 0 0 0 0 0 0 0 0 0 0 0 0 0 0 0
0 0 0 0 0 0 0 0 0 0 0 0 0 0 0 0 0 0 0 0 0 0 0 0 0 0 0 0 0 0 0 0 0 0 0 0 0 0 0 0 0 0 0 0
0 0 0 0 0 0 0 0 0 0 0 0 0 0 0 0 0 0 0 0 0 0 0 0 0 0 0 0 0 0 0 0 0 0 0 0 0 0 0 0 0 0 0 0
0 0 0 0 0 0 0 0 0 0 0 0 0 0 0 0 0 0 0 0 0 0 0 0 0 0 0 0 0 0 0 0 0 0 0 0 0 0 0 0 0 0 0 0
-0 -0 -0 -0 0 0 0 0 0 0 0 0 0 0 0 0 0 0 0 0 0 0 0 0 0 0 0 0 0 -0 -0 0 0 0 0 0 0 0 0 0 0 0 0 0
0 0 -0 -0 0 0 0 0 -0 0 0 0 0 0 0 0 0 0 0 -0 -0 0 0 0 0 0 0 0 -0 -0 -0 -0 0 0 0 0 0 0 0 0 0 0 0 0
0 0 0 0 0 0 0 0 -0 0 0 0 0 0 0 0 0 0 0 0 0 0 0 0 0 0 0 0 -0 -0 -0 -0 -0 0 0 0 0 0 0 0 0 0 0 0
0 0 0 0 0 0 0 0 0 0 0 0 0 0 0 0 0 0 0 0 0 0 0 0 0 0 0 0 -0 -0 -0 -0 -0 0 0 0 0 0 0 0 0 0 0 0
0 0 0 0 0 0 0 0 0 0 0 0 0 0 0 0 0 0 0 0 0 0 0 0 0 0 0 0 0 0 -0 -0 -0 -0 0 0 0 0 0 0 0 0 0 0
0 0 0 0 0 0 0 0 0 0 0 0 0 0 0 -0 -0 0 0 0 0 0 0 0 0 0 0 0 0 0 0 0 0 0 0 0 0 0 0 0 0 0 0 0
0 0 0 0 0 0 0 0 0 0 0 0 0 0 0 -0 -0 -0 0 0 0 0 0 0 0 0 0 0 0 0 0 0 0 0 0 0 0 0 0 0 0 0 0 0
0 0 0 0 0 0 0 0 0 0 0 0 0 0 0 0 -0 -0 0 0 0 0 0 0 0 0 0 0 0 0 0 0 0 0 0 0 0 0 0 0 0 0 0 0
0 0 0 0 0 0 0 0 0 0 0 0 0 0 0 0 0 0 0 0 0 0 0 0 0 0 0 0 0 0 0 0 0 0 0 0 0 0 0 0 0 0 0 0
0 0 0 0 0 0 0 0 0 0 0 0 0 0 0 0 0 0 0 0 0 0 0 0 0 0 0 0 -0 0 0 0 0 0 0 0 0 0 0 0 0 0 0 0
0 0 0 0 0 0 0 0 0 0 0 0 0 0 0 0 0 0 0 0 0 0 0 0 0 0 0 0 -0 -0 0 0 0 0 0 0 0 0 0 0 0 0 0 0
Wind_Speed
2 3 6 9 9 6 4 4 6 6 3 4 9 11 10 7 7 8 8 7 7 7 5 4 3 3 4 4 4 5 5 4 4 3 3 3 3 2 2 2 3 4 3 4
1 6 9 5 5 5 5 5 6 5 3 4 7 12 10 8 9 9 9 8 7 5 3 3 3 2 3 4 4 5 4 4 4 3 3 2 3 2 3 2 2 3 3 4
7 5 5 5 4 5 6 7 7 5 4 3 4 9 6 6 5 5 6 7 6 6 5 4 4 4 3 3 4 4 4 4 4 3 2 2 1 1 1 2 2 3 4 4
5 5 2 3 5 6 8 5 5 4 3 4 2 7 8 5 5 6 7 5 5 4 4 4 4 4 3 3 2 3 3 3 3 4 4 4 3 3 3 2 2 2 3 3
5 2 3 5 6 6 5 3 3 3 4 4 3 5 9 2 6 8 6 6 5 4 4 4 4 4 3 3 2 3 3 3 3 3 4 4 3 2 1 1 2 2 2 3
4 2 3 5 3 4 3 1 1 0 1 7 7 7 9 5 8 6 5 5 4 4 3 3 2 3 2 2 2 2 3 3 3 3 3 4 4 3 2 2 2 2 1 2
3 3 2 2 1 1 2 3 1 2 2 8 4 6 10 6 5 6 6 5 3 3 3 3 2 2 2 2 2 2 3 3 3 3 3 3 4 4 4 3 3 2 2 2
3 5 4 2 5 5 5 6 6 6 6 5 3 8 7 4 2 1 1 2 2 2 2 3 3 3 3 2 2 2 3 3 3 3 3 2 3 3 2 3 2 3 2 2
5 5 2 2 2 5 5 5 4 2 1 3 6 6 7 1 1 2 2 2 0 1 2 2 2 2 2 3 3 3 3 3 3 2 2 2 2 2 2 2 2 2 2 2
4 3 3 2 0 2 3 4 3 4 4 5 6 5 5 3 2 1 1 1 1 1 1 1 1 1 1 1 1 1 2 2 2 2 2 2 1 2 2 2 2 2 2 1
3 3 3 1 6 7 4 4 4 3 4 5 5 6 4 3 3 2 2 1 1 2 2 1 1 1 0 1 1 1 1 1 1 1 1 1 1 1 1 1 1 1 1 2
2 3 3 6 5 3 5 7 7 6 6 5 5 7 2 2 1 1 1 2 1 1 1 1 1 1 1 1 1 1 1 1 1 1 1 1 1 1 1 0 1 1 1 1
2 3 0 4 2 0 2 3 5 4 3 5 6 8 2 2 2 2 1 2 1 1 1 1 1 1 1 1 1 1 1 1 1 1 1 1 1 1 0 1 1 1 1 1
1 3 6 8 5 4 4 4 4 4 5 7 10 10 7 5 4 4 3 2 1 1 1 1 1 1 1 1 1 1 1 1 1 1 1 0 0 0 1 0 1 1 1 1
2 4 6 7 6 4 6 7 7 9 9 10 11 11 10 6 4 3 2 1 1 2 1 1 1 1 1 1 1 1 1 1 1 1 1 1 1 1 1 1 1 1 1 1
2 4 3 6 5 6 8 9 10 11 10 11 10 12 8 4 1 1 1 1 1 1 2 1 1 1 1 1 1 1 1 1 1 1 1 1 2 1 1 1 1 1 1 1
3 4 3 5 3 2 9 11 11 8 7 7 11 12 5 2 2 3 2 2 2 2 2 2 1 1 1 1 1 1 1 1 1 1 2 2 2 2 2 1 1 1 1 1
6 4 3 2 1 8 9 2 6 8 7 7 7 6 4 4 3 2 1 2 2 2 2 1 1 1 2 2 2 1 2 2 1 1 2 2 2 2 2 2 1 1 1 1
7 7 4 3 5 9 7 3 4 6 8 6 8 7 4 2 1 2 1 1 1 1 1 1 0 1 2 2 2 2 2 2 2 2 2 2 2 2 2 2 2 2 1 1
3 5 5 4 5 9 7 3 2 3 7 3 4 4 2 0 2 4 3 2 1 1 1 1 2 2 2 3 2 2 1 2 2 3 3 3 2 2 2 3 3 2 2 1
3 4 6 7 8 9 7 3 2 5 7 2 1 2 2 3 4 2 2 2 2 2 2 2 2 2 2 3 2 1 2 2 3 3 3 3 3 3 3 3 2 2 2 1
8 6 6 5 7 11 2 3 5 5 1 1 1 1 1 2 1 2 2 2 3 3 2 2 2 2 2 3 2 2 2 3 3 3 3 3 3 3 2 2 2 2 1 1
8 8 7 9 8 3 3 4 2 1 1 2 2 1 1 1 1 1 2 2 2 2 2 2 2 2 3 3 3 2 3 3 3 3 3 3 3 3 2 2 2 2 1 1
4 2 3 4 5 3 2 2 1 0 1 1 1 1 0 1 1 1 2 2 2 2 2 2 2 2 3 3 3 3 3 3 3 3 3 3 3 3 3 2 2 2 2 2
4 3 3 5 4 2 3 2 1 1 1 2 2 1 1 1 1 1 1 1 2 2 2 2 2 2 3 4 4 4 4 3 3 3 3 3 3 3 3 3 2 2 3 3
4 5 6 6 5 4 4 2 1 1 1 1 1 2 1 0 1 1 1 1 1 2 2 2 3 3 3 3 4 4 4 3 2 3 3 2 2 2 2 3 3 5 4 5
Wind_Direction
165 135 203 210 208 215 201 219 245 246 235 226 240 255 259 241 233 237 236 230 231 236 232 206 188 169 155 156 161 166 165 166 159 163 170 176 186 185 184 182 181 180 178 176
100 230 227 215 213 225 238 251 260 278 246 237 260 265 258 239 227 227 226 225 229 233 229 197 179 165 167 172 175 172 172 165 168 176 175 175 174 183 186 184 186 188 183 182
200 227 214 199 206 218 234 229 238 256 305 288 294 287 263 253 235 234 230 225 223 215 211 201 186 181 175 177 179 177 177 167 169 163 142 125 114 112 168 191 196 197 192 189
232 248 223 204 215 204 239 230 226 233 252 267 221 279 266 241 247 241 241 236 227 217 201 195 185 175 176 190 180 169 168 163 166 156 159 167 178 191 203 199 200 197 193 191
230 210 199 218 220 205 220 227 225 232 232 266 234 248 276 235 245 245 239 234 228 208 195 188 183 179 173 171 168 165 155 159 159 159 170 176 181 188 181 184 191 199 201 197
247 257 212 214 230 209 178 69 17 57 160 254 225 214 271 229 227 240 234 232 220 196 184 170 160 149 149 149 150 151 154 161 163 167 169 178 180 174 170 185 194 205 215 212
275 264 249 192 182 249 145 125 13 323 266 248 211 215 249 242 233 225 226 227 212 184 167 159 158 158 161 160 162 156 157 165 168 169 174 183 182 177 182 188 197 203 213 228
214 257 223 204 191 192 203 179 182 209 229 262 234 231 249 253 264 243 195 182 175 178 178 177 182 181 178 176 173 166 163 167 168 169 178 182 179 179 187 193 196 204 213 223
197 243 288 236 207 168 180 210 202 174 243 259 254 267 291 287 3 23 45 67 139 202 193 194 187 189 186 186 193 185 177 170 167 164 164 165 171 176 185 193 193 205 215 217
177 239 274 285 163 227 188 171 151 176 194 245 263 248 244 253 263 292 22 3 285 267 203 187 189 202 199 193 198 172 172 173 160 151 154 153 172 178 173 172 193 205 211 206
172 190 276 260 205 201 181 188 185 189 197 199 250 257 230 218 225 222 251 258 233 222 201 186 197 182 129 77 95 102 118 134 137 140 137 131 140 153 153 174 197 213 221 215
186 163 238 243 243 233 202 198 180 193 229 220 238 261 276 230 233 221 286 316 321 242 196 189 187 122 85 75 71 79 77 106 149 152 146 143 127 110 120 214 232 231 233 231
160 151 257 320 293 251 232 223 207 201 198 213 224 253 303 360 351 335 313 311 314 11 18 38 41 53 51 58 69 65 54 34 32 92 125 140 133 135 195 277 299 263 246 250
154 193 199 216 230 196 229 246 217 194 214 230 233 251 277 296 303 309 306 302 345 37 33 41 32 21 22 36 59 58 36 26 34 46 70 79 38 231 242 276 293 284 264 257
138 226 237 255 263 238 239 244 227 221 223 227 244 245 257 262 260 278 306 334 8 20 23 347 326 342 9 14 6 18 27 20 34 51 43 360 354 3 4 340 316 312 307 278
167 217 242 268 259 246 258 254 240 237 239 243 256 267 267 285 295 311 289 230 257 295 306 310 310 340 355 338 327 335 346 5 42 48 11 2 9 8 358 334 321 323 322 321
191 178 197 255 287 304 259 234 218 217 221 220 236 252 272 286 270 249 236 224 246 273 295 302 308 301 310 318 312 308 326 26 52 44 21 11 5 354 340 330 325 302 305 327
184 182 192 225 100 239 244 218 202 214 233 229 242 264 263 250 259 253 218 200 235 262 268 287 317 349 351 355 358 14 36 37 32 24 14 8 4 349 342 335 319 311 314 301
195 181 182 188 226 263 278 253 197 211 249 241 244 266 279 278 330 311 298 221 225 246 270 290 56 48 20 9 9 53 40 26 14 357 351 350 348 330 326 320 315 308 314 318
196 186 184 192 212 238 248 238 224 181 257 252 230 252 271 210 252 271 335 354 359 24 43 70 64 55 37 10 21 62 37 19 352 339 334 332 330 311 304 301 307 314 313 308
178 197 206 214 231 254 257 268 143 187 247 297 224 231 218 221 241 294 347 358 27 35 47 66 70 55 29 14 28 42 19 343 330 333 330 329 325 316 305 307 311 315 315 319
185 187 200 196 221 248 246 137 185 224 314 345 302 278 255 258 318 351 0 11 26 28 34 58 67 43 25 20 24 14 347 332 338 336 330 326 322 317 314 314 314 317 306 297
204 201 198 199 217 234 160 177 211 256 272 301 305 305 244 256 282 322 334 357 14 20 14 27 52 38 17 11 10 347 331 340 338 335 326 321 321 318 315 306 302 306 294 275
240 242 210 235 251 244 214 209 261 259 266 317 328 322 293 256 275 310 324 344 357 11 13 21 35 27 1 360 1 346 338 339 329 320 319 322 324 323 325 310 290 279 269 264
220 190 207 235 255 300 262 254 260 354 9 4 360 347 289 219 268 285 305 327 343 360 4 13 15 356 344 350 351 347 345 341 329 321 318 320 319 317 317 311 291 277 266 255
197 187 196 226 211 210 255 293 271 285 303 301 318 343 351 236 242 290 306 332 344 349 357 357 355 348 339 341 341 341 338 335 324 317 319 314 310 310 310 315 321 323 309 307